User: anonymous   Login
Location: Unspecified
(0.0000°N, 0.0000°E)
Time: 01:10:53
(UTC+00:00)
Language:

STARLINK-30467 - Orbit

View from above orbital plane
View from above orbital plane
View from above satellite
View from above satellite

Ground track
Ground track

The orbit is defined by the following mean orbital elements,

1 57895U          26145.28787979 +.00000000 +00000-0 +69669-3 0 00001
2 57895  42.9979 241.3885 0001654 260.6621  99.4043 15.27606979    07
Epoch (UTC): 25 May 2026 06:54:32
Eccentricity: 0.0001654
inclination: 42.9979°
perigee height: 482 km
apogee height: 484 km
right ascension of ascending node: 241.3885°
argument of perigee: 260.6621°
revolutions per day: 15.27606979
mean anomaly at epoch: 99.4043°

The dashed part of the orbit path shows where the satellite is in the earth's shadow,  

DLR